User: anonymous   Login
Location: Oshawa
(43.9000°N, 78.8670°W)
Time: 06:49:36
(UTC-04:00)
Language:

S-56A Canister/Altair - Orbit

View from above orbital plane
View from above orbital plane
View from above satellite
View from above satellite

Ground track
Ground track

The orbit data is extracted from the following two-line orbital elements,

1    82U 61004B   16241.56773215 +.00000091 +00000-0 +10329-3 0  9999
2    82 038.8587 299.8136 1167243 221.9469 128.5827 12.25773975637351
Epoch (UTC): 28 August 2016 13:37:32
Eccentricity: 0.1167243
inclination: 38.8587°
perigee height: 640 km
apogee height: 2495 km
right ascension of ascending node: 299.8136°
argument of perigee: 221.9469°
revolutions per day: 12.25773975
mean anomaly at epoch: 128.5827°
orbit number at epoch: 63735

The dashed part of the orbit path shows where the satellite is in the earth's shadow,  

DLR